Regional Weather Roundup
Issued by NWS Sterling, VA

Home | Current Version | Previous Version | Graphics & Text | Print | Product List | Glossary On
Versions: 1 2 3 4 5 6 7 8 9 10 11 12 13 14 15 16 17 18 19 20 21 22 23 24 25 26 27 28 29 30 31 32 33 34 35 36 37 38 39 40 41 42 43 44 45 46 47 48 49 50
747
ASUS41 KLWX 270811
RWRLWX

REGIONAL WEATHER ROUNDUP
NATIONAL WEATHER SERVICE BALTIMORE MD/WASHINGTON DC
400 AM EDT MON MAR 27 2017

Note: "FAIR" indicates few or no clouds below 12,000 feet
with no significant weather and/or obstructions to visibility.
 TC=TEMPERATURE CELSIUS

 * =Non NWS site. Station does not report precipitation (e.g. rain,
    snow, etc.), thunder, or fog.

DCZ001-MDZ009-015-VAZ040>042-051-053>054-270900-
WASHINGTON METRO

CITY           SKY/WX    TMP DP  RH WIND       PRES   REMARKS
WASHINGTON NAT CLOUDY    47  46  97 E3        30.12F FOG
DULLES         DRZL/FOG  46  45  96 SE6       30.10F VSB 1/2
ANDREWS AFB    FOG       45  45 100 E7        30.09F VSB 3/4
FT BELVOIR     CLOUDY    46  45  96 CALM      30.11F FOG
QUANTICO       FOG       48  48 100 NE3       30.13F VSB 1/2
COLLEGE PARK*  CLOUDY    43  43 100 CALM      30.11F
LEESBURG*      FOG       46  46 100 CALM      30.11F VSB 1/2
MANASSAS*      FOG       46  32  58 CALM      30.12F VSB 3/4

$$

MDZ006>007-011-014-270900-
BALTIMORE METRO

CITY           SKY/WX    TMP DP  RH WIND       PRES   REMARKS
BWI AIRPORT    FOG       44  44 100 E6        30.12F VSB 1/4
MD SCIENCE CTR   N/A     45  43  93 MISG      30.13F
MARTIN STATE   FOG       45  45 100 NE3       30.14F VSB 3/4
ANNAPOLIS      FOG       46  46 100 E5        30.12F VSB 1/2
FORT MEADE*    CLOUDY    43  43 100 E5        30.14F VSB 3/4

$$

MDZ012-015-019>023-270900-
MARYLAND EASTERN SHORE

CITY           SKY/WX    TMP DP  RH WIND       PRES   REMARKS
OCEAN CITY     CLOUDY    44  43  96 E3        30.15F FOG
SALISBURY      FOG       46  46 100 E3        30.13F VSB 1/2
BAY BRIDGE AP* FOG       45  45 100 E5        30.13F VSB 3/4
CAMBRIDGE*     FOG       46  46 100 SE6       30.12F VSB 1/4
EASTON*        FOG       47  46  95 SE5       30.16F VSB 3/4

$$

MDZ017>025-270900-
SOUTHERN MARYLAND

CITY           SKY/WX    TMP DP  RH WIND       PRES   REMARKS
PATUXENT RIVER FOG       47  47 100 SE6       30.12F VSB 1/2
ST INIGOES     CLOUDY    48  47  96 CALM      30.11F FOG
LEONARDTOWN*   CLOUDY    46  46 100 CALM      30.12F

$$

MDZ003>005-270900-
NORTH CENTRAL MARYLAND

CITY           SKY/WX    TMP DP  RH WIND       PRES   REMARKS
FREDERICK*     CLOUDY    46  46 100 CALM      30.14F FOG
HAGERSTOWN APT CLOUDY    46  45  96 NW7       30.10S
WESTMINSTER*   LGT RAIN  43  43 100 SE5       30.09F VSB 3/4

$$

MDZ501>502-270900-
WESTERN MARYLAND

CITY           SKY/WX    TMP DP  RH WIND       PRES   REMARKS
OAKLAND*       CLOUDY    45  45 100 S9        30.00F
CUMBERLAND*    CLOUDY    46  46 100 CALM      30.10F

$$

VAZ025>031-270900-
SHENANDOAH VALLEY

CITY           SKY/WX    TMP DP  RH WIND       PRES   REMARKS
WINCHESTER*    DRIZZLE   45  45 100 CALM      30.06F
FRONT ROYAL*   CLOUDY    46  46 100 CALM      30.05F
LURAY*         LGT RAIN  50  50 100 CALM      30.06F
NEW MARKET*    CLOUDY    48  47  96 CALM      30.06F
STAUNTON*      LGT RAIN  50  48  95 W3        30.08S
WAYNESBORO*    CLOUDY    49  49 100 CALM      30.06F

$$

WVZ021-048>050-054>055-270900-
EASTERN WEST VIRGINIA PANHANDLE

CITY           SKY/WX    TMP DP  RH WIND       PRES   REMARKS
MARTINSBURG    CLOUDY    45  44  97 CALM      30.08F FOG
PETERSBURG*    LGT RAIN  49  48  95 CALM      30.05F

$$

VAZ036>039-050-270900-
CENTRAL FOOTHILLS

CITY           SKY/WX    TMP DP  RH WIND       PRES   REMARKS
CHARLOTTESVILL CLOUDY    50  49  96 CALM      30.10F FOG
CULPEPER*      FOG       49  49 100 CALM      30.11F VSB 1/2
ORANGE*        FOG       46  46 100 CALM      30.11F VSB 1/4
GORDONSVILLE*  FOG       48  48 100 CALM      30.10F VSB 1
WARRENTON*     FOG       48  46  91 CALM      30.11S VSB 1/2

$$

VAZ055>057-270900-
NORTH AND CENTRAL PIEDMONT

CITY           SKY/WX    TMP DP  RH WIND       PRES   REMARKS
FREDERICKSBRG* FOG       49  49 100 CALM      30.10F VSB 3/4
STAFFORD*      FOG       47  47 100 CALM      30.15F VSB 1/2

$$

NCZ024-NYZ072-PAZ021-071-VAZ022-071-270900-
OTHER REGIONAL OBSERVATIONS

CITY           SKY/WX    TMP DP  RH WIND       PRES   REMARKS
NEW YORK CITY  CLOUDY    38  37  97 NE7       30.22F FOG
PHILADELPHIA   FOG       42  41  96 E9        30.16F VSB 3/4
PITTSBURGH     CLOUDY    54  54 100 S5        29.94S
ROANOKE        CLOUDY    54  54 100 SE6       30.10F
RICHMOND       CLOUDY    52  52 100 S5        30.10F
RALEIGH        MOCLDY    62  54  74 S8        30.11F

$$

ANZ530>537-270900-
MARINE OBSERVATIONS

STATION/POSITION TIME  TEMP    WIND        PRES
                       AIR SEA DIR/SP/G
                 (UTC) (F)     (DEG/KT/KT) (MB)
THOMAS PT LIGHT  0800   45 45   90/  5/  5   N/A
BALT KEY BRIDGE  0742   44      90/  7/  8 1020.3F
COVE POINT       0742   46     170/  5/  5 1020.6F
LEWISETTA        0742   47 50  130/  6/  6 1019.6F
SOLOMONS ISLAND  0742   47 47  120/  6/  7   N/A
PINEY POINT      0748          140/  6/  7   N/A

$$





USA.gov is the U.S. government's official web portal to all federal, state and local government web resources and services.